QPF
0.06 0.06 0.06 0.07 0.06 0.06 0.07 0.08 0.08 0.09 0.09 0.07 0.08 0.09 0.08 0.09 0.09 0.07 0.05 0.05 0.05 0.05 0.07 0.10 0.12 0.12 0.13 0.15 0.16 0.16 0.15 0.13 0.11 0.08 0.06 0.04 0.04 0.04
0.05 0.06 0.06 0.06 0.05 0.06 0.06 0.05 0.06 0.08 0.09 0.08 0.07 0.08 0.09 0.09 0.10 0.08 0.06 0.06 0.06 0.06 0.07 0.09 0.11 0.12 0.12 0.11 0.12 0.15 0.15 0.12 0.10 0.08 0.06 0.04 0.04 0.04
0.04 0.04 0.06 0.07 0.07 0.07 0.06 0.05 0.04 0.06 0.08 0.07 0.08 0.09 0.10 0.10 0.11 0.10 0.08 0.07 0.07 0.08 0.08 0.09 0.09 0.11 0.13 0.11 0.09 0.12 0.14 0.12 0.10 0.08 0.06 0.05 0.04 0.03
0.04 0.04 0.05 0.06 0.07 0.07 0.06 0.05 0.04 0.05 0.07 0.08 0.08 0.09 0.09 0.09 0.10 0.10 0.09 0.08 0.08 0.11 0.11 0.10 0.09 0.10 0.12 0.14 0.12 0.10 0.10 0.10 0.09 0.09 0.07 0.06 0.05 0.04
0.05 0.05 0.05 0.06 0.07 0.06 0.05 0.04 0.04 0.05 0.06 0.07 0.07 0.08 0.09 0.09 0.11 0.11 0.11 0.09 0.08 0.13 0.13 0.13 0.12 0.12 0.11 0.12 0.14 0.13 0.10 0.09 0.08 0.08 0.08 0.07 0.06 0.05
0.08 0.08 0.08 0.08 0.07 0.06 0.05 0.05 0.05 0.06 0.06 0.07 0.07 0.08 0.09 0.10 0.11 0.12 0.13 0.13 0.11 0.13 0.15 0.14 0.14 0.13 0.13 0.11 0.11 0.12 0.10 0.09 0.08 0.07 0.08 0.07 0.06 0.06
0.07 0.09 0.11 0.12 0.12 0.09 0.07 0.06 0.05 0.05 0.06 0.08 0.08 0.09 0.09 0.11 0.10 0.10 0.11 0.12 0.13 0.13 0.13 0.13 0.13 0.13 0.13 0.11 0.10 0.11 0.11 0.10 0.09 0.09 0.08 0.07 0.06 0.05
0.06 0.08 0.10 0.12 0.14 0.12 0.10 0.10 0.08 0.06 0.06 0.06 0.07 0.08 0.08 0.08 0.08 0.09 0.10 0.12 0.14 0.13 0.11 0.12 0.11 0.12 0.12 0.11 0.10 0.10 0.11 0.11 0.10 0.10 0.09 0.08 0.07 0.06
0.06 0.07 0.09 0.11 0.12 0.11 0.10 0.09 0.09 0.08 0.07 0.06 0.06 0.05 0.06 0.06 0.07 0.09 0.11 0.12 0.13 0.13 0.11 0.14 0.13 0.12 0.11 0.10 0.10 0.09 0.10 0.11 0.11 0.11 0.10 0.07 0.05 0.05
0.06 0.07 0.07 0.08 0.10 0.10 0.09 0.08 0.07 0.06 0.06 0.05 0.04 0.04 0.05 0.06 0.08 0.10 0.12 0.14 0.16 0.15 0.12 0.14 0.13 0.12 0.10 0.09 0.09 0.08 0.09 0.11 0.13 0.11 0.11 0.09 0.07 0.06
0.10 0.11 0.11 0.08 0.08 0.09 0.10 0.10 0.09 0.08 0.08 0.07 0.07 0.07 0.07 0.09 0.10 0.12 0.13 0.14 0.16 0.16 0.13 0.13 0.12 0.12 0.10 0.09 0.09 0.09 0.09 0.10 0.10 0.10 0.09 0.08 0.06 0.06
0.10 0.11 0.12 0.11 0.10 0.09 0.10 0.10 0.10 0.08 0.09 0.09 0.09 0.08 0.07 0.08 0.09 0.09 0.10 0.12 0.13 0.14 0.13 0.12 0.10 0.10 0.12 0.11 0.11 0.10 0.09 0.09 0.08 0.09 0.08 0.07 0.06 0.04
0.09 0.09 0.09 0.10 0.10 0.09 0.09 0.11 0.10 0.08 0.09 0.11 0.10 0.09 0.08 0.08 0.08 0.08 0.08 0.10 0.10 0.10 0.10 0.11 0.11 0.10 0.11 0.12 0.11 0.10 0.09 0.08 0.07 0.07 0.07 0.07 0.06 0.04
0.10 0.09 0.09 0.10 0.11 0.10 0.09 0.10 0.11 0.11 0.12 0.12 0.12 0.11 0.09 0.07 0.08 0.08 0.08 0.09 0.09 0.07 0.08 0.09 0.10 0.10 0.10 0.09 0.08 0.08 0.07 0.06 0.06 0.05 0.05 0.06 0.05 0.04
0.10 0.09 0.08 0.09 0.10 0.09 0.09 0.09 0.12 0.14 0.14 0.13 0.12 0.11 0.08 0.07 0.07 0.08 0.08 0.09 0.10 0.09 0.09 0.08 0.08 0.09 0.09 0.08 0.06 0.06 0.06 0.06 0.05 0.04 0.04 0.04 0.04 0.04
0.08 0.07 0.08 0.09 0.10 0.09 0.10 0.10 0.10 0.13 0.14 0.12 0.11 0.11 0.10 0.09 0.08 0.07 0.07 0.08 0.10 0.10 0.09 0.09 0.09 0.09 0.09 0.09 0.07 0.05 0.05 0.05 0.05 0.04 0.04 0.04 0.03 0.02
0.07 0.06 0.07 0.09 0.11 0.11 0.10 0.11 0.12 0.13 0.13 0.12 0.12 0.12 0.10 0.09 0.08 0.07 0.07 0.07 0.07 0.09 0.08 0.08 0.08 0.08 0.08 0.08 0.08 0.07 0.05 0.05 0.05 0.04 0.04 0.04 0.04 0.03
0.06 0.06 0.07 0.08 0.11 0.12 0.11 0.12 0.13 0.14 0.13 0.12 0.11 0.11 0.10 0.09 0.09 0.08 0.08 0.07 0.06 0.07 0.07 0.06 0.06 0.08 0.09 0.10 0.09 0.08 0.07 0.06 0.06 0.06 0.05 0.04 0.04 0.03
0.06 0.07 0.07 0.09 0.10 0.11 0.11 0.11 0.12 0.12 0.12 0.12 0.10 0.10 0.10 0.10 0.09 0.08 0.07 0.07 0.07 0.07 0.06 0.06 0.05 0.06 0.07 0.07 0.08 0.07 0.06 0.06 0.07 0.08 0.06 0.04 0.03 0.03
0.07 0.08 0.09 0.08 0.09 0.09 0.10 0.10 0.09 0.10 0.11 0.12 0.11 0.09 0.09 0.09 0.09 0.08 0.07 0.06 0.06 0.07 0.06 0.06 0.06 0.05 0.04 0.04 0.05 0.06 0.07 0.06 0.06 0.07 0.07 0.05 0.04 0.04
0.08 0.09 0.10 0.10 0.09 0.08 0.08 0.09 0.09 0.09 0.10 0.11 0.11 0.10 0.08 0.08 0.08 0.08 0.07 0.07 0.06 0.06 0.06 0.06 0.06 0.06 0.05 0.05 0.05 0.06 0.07 0.07 0.06 0.05 0.05 0.05 0.05 0.05
0.08 0.08 0.09 0.11 0.10 0.09 0.08 0.08 0.09 0.09 0.09 0.09 0.09 0.10 0.09 0.08 0.08 0.08 0.08 0.07 0.06 0.06 0.06 0.06 0.06 0.06 0.06 0.06 0.06 0.05 0.06 0.06 0.06 0.05 0.05 0.04 0.04 0.05
0.07 0.07 0.08 0.09 0.09 0.09 0.08 0.08 0.08 0.09 0.09 0.08 0.07 0.08 0.09 0.09 0.08 0.08 0.07 0.07 0.06 0.06 0.06 0.06 0.06 0.06 0.07 0.07 0.06 0.05 0.05 0.05 0.05 0.05 0.05 0.05 0.04 0.03
MSLP
994.66 994.97 995.39 995.88 996.41 996.93 997.39 997.75 997.98 998.04 997.92 997.61 997.11 996.45 995.66 994.77 993.85 992.93 992.08 991.34 990.78 990.43 990.31 990.44 990.81 991.42 992.22 993.20 994.30 995.49 996.71 997.94 999.13 1000.25 1001.29 1002.23 1003.06 1003.77
993.41 993.78 994.27 994.86 995.50 996.12 996.69 997.14 997.44 997.55 997.46 997.16 996.66 995.99 995.18 994.29 993.36 992.47 991.66 991.00 990.52 990.27 990.25 990.49 990.96 991.65 992.53 993.57 994.72 995.93 997.17 998.39 999.56 1000.66 1001.66 1002.55 1003.31 1003.94
992.51 992.92 993.46 994.09 994.78 995.46 996.08 996.57 996.91 997.06 996.99 996.71 996.24 995.59 994.82 993.99 993.15 992.35 991.67 991.13 990.80 990.68 990.80 991.15 991.71 992.46 993.38 994.42 995.56 996.73 997.92 999.08 1000.18 1001.20 1002.12 1002.91 1003.58 1004.12
991.99 992.40 992.94 993.57 994.26 994.93 995.54 996.04 996.38 996.53 996.48 996.24 995.81 995.25 994.58 993.88 993.19 992.58 992.08 991.74 991.60 991.66 991.92 992.38 993.01 993.80 994.70 995.70 996.75 997.83 998.90 999.93 1000.91 1001.81 1002.61 1003.29 1003.85 1004.27
991.79 992.18 992.68 993.26 993.89 994.50 995.05 995.50 995.81 995.95 995.92 995.72 995.38 994.93 994.43 993.92 993.46 993.08 992.84 992.75 992.83 993.09 993.50 994.06 994.75 995.53 996.38 997.27 998.19 999.12 1000.02 1000.89 1001.70 1002.44 1003.10 1003.65 1004.08 1004.40
991.83 992.17 992.59 993.08 993.60 994.11 994.57 994.94 995.19 995.30 995.29 995.15 994.92 994.63 994.33 994.06 993.87 993.79 993.83 994.02 994.35 994.80 995.37 996.02 996.73 997.47 998.23 998.99 999.74 1000.48 1001.18 1001.85 1002.47 1003.04 1003.54 1003.96 1004.28 1004.51
991.99 992.26 992.59 992.96 993.36 993.74 994.08 994.35 994.54 994.63 994.63 994.57 994.46 994.35 994.28 994.28 994.37 994.59 994.93 995.39 995.96 996.60 997.30 998.02 998.73 999.42 1000.07 1000.68 1001.25 1001.78 1002.28 1002.74 1003.18 1003.57 1003.92 1004.21 1004.44 1004.58
992.19 992.37 992.60 992.86 993.13 993.39 993.62 993.81 993.93 994.00 994.04 994.05 994.07 994.14 994.29 994.54 994.91 995.41 996.01 996.72 997.49 998.29 999.09 999.85 1000.55 1001.18 1001.72 1002.19 1002.58 1002.93 1003.23 1003.51 1003.77 1004.01 1004.23 1004.41 1004.55 1004.63
992.36 992.47 992.62 992.78 992.96 993.12 993.27 993.39 993.47 993.55 993.61 993.71 993.85 994.08 994.43 994.89 995.49 996.21 997.03 997.92 998.84 999.75 1000.61 1001.39 1002.06 1002.62 1003.06 1003.40 1003.65 1003.85 1004.00 1004.13 1004.25 1004.36 1004.47 1004.56 1004.63 1004.67
992.55 992.61 992.70 992.81 992.92 993.03 993.14 993.23 993.31 993.39 993.51 993.67 993.92 994.28 994.76 995.38 996.13 997.00 997.95 998.95 999.95 1000.90 1001.78 1002.54 1003.17 1003.67 1004.03 1004.28 1004.43 1004.52 1004.57 1004.60 1004.62 1004.65 1004.67 1004.70 1004.71 1004.71
992.84 992.87 992.94 993.03 993.14 993.24 993.35 993.44 993.54 993.66 993.82 994.05 994.37 994.81 995.38 996.08 996.91 997.83 998.82 999.84 1000.85 1001.79 1002.63 1003.35 1003.93 1004.37 1004.68 1004.87 1004.97 1005.00 1004.99 1004.96 1004.93 1004.90 1004.87 1004.84 1004.81 1004.78
993.33 993.37 993.45 993.57 993.70 993.84 993.97 994.11 994.25 994.41 994.62 994.89 995.25 995.72 996.31 997.03 997.85 998.76 999.71 1000.68 1001.62 1002.49 1003.26 1003.91 1004.43 1004.82 1005.09 1005.25 1005.33 1005.35 1005.32 1005.28 1005.22 1005.15 1005.09 1005.02 1004.95 1004.88
994.12 994.19 994.31 994.47 994.66 994.85 995.05 995.23 995.42 995.62 995.86 996.15 996.52 996.99 997.56 998.23 998.99 999.81 1000.67 1001.53 1002.36 1003.12 1003.79 1004.35 1004.80 1005.15 1005.39 1005.54 1005.62 1005.65 1005.63 1005.59 1005.53 1005.45 1005.36 1005.25 1005.13 1005.01
995.26 995.36 995.53 995.75 996.00 996.25 996.50 996.74 996.97 997.20 997.46 997.75 998.11 998.54 999.05 999.64 1000.30 1001.01 1001.73 1002.45 1003.14 1003.77 1004.32 1004.79 1005.17 1005.46 1005.68 1005.83 1005.92 1005.97 1005.98 1005.95 1005.88 1005.79 1005.67 1005.52 1005.35 1005.16
996.72 996.85 997.07 997.33 997.63 997.93 998.23 998.50 998.76 999.01 999.26 999.55 999.87 1000.25 1000.69 1001.19 1001.73 1002.31 1002.89 1003.47 1004.01 1004.50 1004.93 1005.30 1005.61 1005.85 1006.04 1006.19 1006.29 1006.35 1006.37 1006.35 1006.28 1006.16 1006.00 1005.80 1005.56 1005.30
998.42 998.58 998.82 999.11 999.43 999.76 1000.07 1000.36 1000.62 1000.87 1001.11 1001.36 1001.65 1001.97 1002.34 1002.76 1003.20 1003.66 1004.12 1004.56 1004.97 1005.34 1005.66 1005.93 1006.17 1006.36 1006.52 1006.65 1006.75 1006.81 1006.82 1006.79 1006.69 1006.54 1006.32 1006.05 1005.73 1005.38
1000.25 1000.41 1000.65 1000.95 1001.27 1001.59 1001.89 1002.16 1002.40 1002.63 1002.85 1003.07 1003.32 1003.60 1003.91 1004.25 1004.62 1004.99 1005.35 1005.69 1005.99 1006.26 1006.49 1006.68 1006.85 1006.99 1007.11 1007.21 1007.28 1007.32 1007.30 1007.23 1007.09 1006.88 1006.59 1006.23 1005.82 1005.37
1002.08 1002.23 1002.45 1002.72 1003.01 1003.29 1003.56 1003.79 1004.00 1004.19 1004.38 1004.58 1004.79 1005.04 1005.32 1005.61 1005.92 1006.24 1006.53 1006.80 1007.03 1007.23 1007.38 1007.51 1007.62 1007.71 1007.78 1007.83 1007.86 1007.85 1007.79 1007.66 1007.45 1007.16 1006.78 1006.32 1005.80 1005.24
1003.84 1003.96 1004.14 1004.37 1004.60 1004.83 1005.04 1005.23 1005.39 1005.54 1005.69 1005.86 1006.06 1006.28 1006.53 1006.81 1007.09 1007.37 1007.63 1007.86 1008.04 1008.19 1008.30 1008.38 1008.43 1008.46 1008.48 1008.48 1008.45 1008.38 1008.25 1008.05 1007.76 1007.37 1006.89 1006.32 1005.69 1005.01
1005.47 1005.56 1005.70 1005.87 1006.04 1006.21 1006.36 1006.48 1006.59 1006.70 1006.82 1006.97 1007.14 1007.35 1007.60 1007.86 1008.13 1008.40 1008.64 1008.84 1009.01 1009.12 1009.19 1009.23 1009.24 1009.23 1009.19 1009.14 1009.04 1008.90 1008.70 1008.41 1008.03 1007.55 1006.96 1006.28 1005.53 1004.74
1006.99 1007.05 1007.14 1007.25 1007.37 1007.47 1007.55 1007.62 1007.68 1007.75 1007.84 1007.96 1008.12 1008.32 1008.55 1008.81 1009.08 1009.34 1009.57 1009.76 1009.91 1010.01 1010.06 1010.06 1010.04 1009.99 1009.90 1009.79 1009.64 1009.43 1009.15 1008.78 1008.31 1007.73 1007.05 1006.27 1005.41 1004.51
1008.43 1008.45 1008.50 1008.56 1008.62 1008.66 1008.69 1008.71 1008.73 1008.76 1008.82 1008.92 1009.06 1009.25 1009.47 1009.72 1009.98 1010.23 1010.45 1010.63 1010.77 1010.85 1010.89 1010.88 1010.83 1010.74 1010.63 1010.47 1010.26 1009.99 1009.65 1009.21 1008.66 1008.00 1007.23 1006.36 1005.41 1004.42
1009.81 1009.81 1009.82 1009.84 1009.85 1009.84 1009.82 1009.80 1009.79 1009.79 1009.83 1009.90 1010.03 1010.20 1010.40 1010.64 1010.88 1011.11 1011.32 1011.49 1011.62 1011.69 1011.72 1011.70 1011.63 1011.53 1011.38 1011.19 1010.95 1010.63 1010.24 1009.74 1009.13 1008.41 1007.58 1006.64 1005.63 1004.58
Thickness
5478 5478 5478 5480 5481 5483 5486 5489 5492 5500 5515 5523 5527 5532 5534 5537 5541 5545 5548 5551 5554 5558 5562 5564 5567 5569 5572 5574 5574 5573 5572 5572 5569 5566 5563 5560 5556 5552
5469 5469 5471 5473 5475 5475 5477 5480 5483 5488 5499 5512 5515 5519 5522 5526 5529 5533 5537 5541 5544 5548 5551 5554 5557 5559 5562 5563 5564 5564 5563 5562 5560 5558 5555 5551 5547 5543
5460 5461 5464 5465 5467 5468 5469 5472 5476 5479 5486 5500 5503 5506 5510 5514 5518 5521 5526 5530 5534 5538 5541 5545 5547 5549 5551 5553 5554 5554 5553 5553 5552 5549 5546 5542 5538 5535
5453 5453 5456 5457 5459 5460 5461 5463 5468 5471 5475 5484 5492 5495 5500 5504 5507 5511 5515 5520 5524 5528 5532 5535 5537 5539 5541 5543 5544 5544 5543 5544 5543 5540 5537 5534 5530 5526
5444 5445 5448 5448 5451 5452 5453 5456 5460 5464 5468 5473 5481 5485 5490 5494 5496 5500 5504 5509 5513 5518 5521 5524 5527 5530 5531 5533 5534 5534 5534 5535 5534 5531 5527 5524 5521 5517
5437 5438 5440 5442 5444 5445 5447 5450 5453 5456 5460 5465 5471 5476 5479 5483 5486 5489 5494 5498 5502 5507 5511 5514 5518 5520 5522 5523 5525 5525 5525 5525 5524 5521 5519 5516 5513 5509
5430 5432 5434 5436 5438 5439 5443 5446 5448 5451 5454 5458 5464 5468 5472 5474 5478 5481 5484 5488 5491 5496 5500 5503 5507 5510 5511 5513 5514 5516 5516 5516 5515 5513 5511 5508 5504 5500
5423 5426 5427 5429 5432 5434 5437 5440 5442 5446 5450 5453 5458 5462 5467 5469 5471 5474 5476 5480 5483 5486 5490 5492 5496 5498 5501 5504 5506 5507 5508 5507 5506 5505 5502 5499 5496 5492
5416 5418 5421 5424 5425 5427 5430 5435 5438 5442 5445 5448 5453 5458 5461 5465 5466 5468 5470 5474 5477 5479 5481 5483 5485 5488 5491 5494 5497 5498 5499 5498 5497 5496 5493 5490 5487 5484
5410 5412 5414 5417 5419 5420 5424 5428 5432 5436 5440 5443 5448 5453 5456 5460 5462 5464 5465 5467 5468 5470 5474 5475 5476 5478 5481 5484 5487 5489 5489 5489 5488 5486 5484 5481 5477 5474
5406 5407 5409 5412 5415 5416 5418 5424 5428 5432 5435 5438 5443 5447 5451 5454 5456 5457 5459 5462 5462 5464 5466 5468 5468 5469 5471 5473 5477 5479 5480 5480 5479 5477 5475 5472 5468 5465
5402 5403 5405 5408 5411 5412 5414 5418 5423 5427 5430 5433 5436 5441 5445 5449 5453 5456 5459 5460 5460 5459 5460 5462 5462 5462 5462 5463 5466 5468 5469 5470 5469 5468 5466 5464 5460 5456
5399 5401 5403 5406 5408 5410 5412 5415 5420 5423 5426 5428 5432 5436 5440 5444 5448 5451 5455 5458 5459 5459 5459 5458 5457 5457 5457 5456 5456 5459 5460 5460 5459 5458 5457 5455 5452 5449
5396 5398 5400 5403 5406 5409 5411 5415 5419 5422 5423 5425 5429 5434 5438 5442 5445 5447 5450 5453 5456 5458 5457 5457 5456 5455 5453 5450 5449 5449 5450 5450 5450 5449 5448 5446 5444 5443
5393 5397 5400 5402 5404 5407 5410 5413 5416 5418 5421 5424 5428 5432 5436 5439 5442 5443 5445 5447 5449 5450 5452 5454 5454 5452 5451 5448 5446 5444 5443 5442 5443 5442 5440 5439 5437 5436
5392 5395 5398 5400 5401 5403 5406 5410 5413 5416 5420 5423 5427 5431 5434 5437 5439 5441 5442 5444 5444 5443 5445 5447 5449 5449 5445 5443 5443 5440 5438 5436 5436 5436 5435 5433 5432 5430
5390 5392 5394 5395 5398 5400 5403 5406 5410 5414 5418 5421 5426 5430 5433 5435 5436 5437 5439 5440 5441 5440 5439 5439 5441 5441 5439 5438 5436 5436 5434 5432 5431 5431 5430 5428 5426 5426
5388 5389 5390 5392 5394 5397 5400 5404 5408 5411 5415 5420 5424 5428 5431 5433 5433 5435 5436 5437 5437 5435 5434 5434 5435 5434 5431 5428 5430 5430 5430 5428 5427 5426 5425 5423 5422 5421
5385 5385 5387 5389 5392 5395 5398 5402 5405 5409 5413 5418 5422 5425 5428 5429 5431 5432 5432 5432 5431 5431 5430 5430 5432 5435 5432 5427 5421 5423 5425 5424 5422 5421 5420 5419 5418 5417
5381 5383 5385 5388 5392 5395 5397 5400 5404 5407 5411 5415 5418 5421 5424 5426 5427 5427 5428 5428 5428 5426 5425 5425 5427 5429 5431 5426 5420 5417 5418 5419 5419 5417 5415 5413 5412 5411
5379 5381 5384 5387 5391 5394 5396 5400 5403 5405 5408 5412 5415 5417 5420 5422 5423 5423 5424 5424 5424 5423 5423 5421 5420 5423 5423 5421 5417 5412 5411 5413 5414 5414 5412 5410 5407 5405
5377 5380 5383 5387 5390 5393 5396 5399 5401 5403 5406 5408 5411 5413 5416 5418 5420 5421 5421 5420 5420 5419 5417 5415 5416 5418 5419 5418 5413 5409 5407 5407 5408 5408 5408 5407 5405 5403
5375 5379 5382 5386 5389 5392 5395 5398 5399 5401 5403 5405 5407 5409 5412 5414 5416 5417 5417 5417 5416 5415 5413 5412 5411 5412 5411 5411 5408 5405 5403 5402 5402 5402 5400 5402 5403 5402